Location: Grossmotten
(48.5500°N, 15.3833°E)
Time: 12:09:59
(UTC+00:00)

FALCON 9 DEB - Pass Details

Date: 15 November 2019
Orbit: 431 x 444 km, 53.0° (Epoch: 11 December)

Event Time Altitude Azimuth Distance (km) Brightness Sun altitude
Exits shadow 04:24:33 41° 304° (NW) 641 3.5 -16.7°
Maximum altitude 04:25:16 49° 345° (NNW) 565 3.5 -16.6°
Drops below altitude 10° 04:28:37 10° 62° (ENE) 1,535 6.7 -16.0°
Sets 04:30:47 0° 68° (ENE) 2,404 7.9 -15.7°
